BEIDOU-3 G3

Last updated on Fri Apr 25 2025 00:02:42 GMT+0000 (Coordinated Universal Time)

1 45807U 20040A 25113.90878314 -.00000351 00000+0 00000+0 0 9990 2 45807 1.4339 62.6357 0002526 319.7547 267.5047 1.00274398 17863
UTC large
Height (km)
Speed (km/s)
/
Latitude / Longitude
Inclination (degrees)
Orbital Period (minutes)
Azimuth
Elevation
Range (km)
Doppler Factor

Next 0 passes for location: London (51.5072 / 0.1276)

Sorry there are no passes over London.